Time,TemperatureF,DewpointF,PressureIn,WindDirection,WindDirectionDegrees,WindSpeedMPH,WindSpeedGustMPH,Humidity,HourlyPrecipIn,Conditions,Clouds,dailyrainin,SoftwareType,DateUTC
2013-07-02 00:11:00,71.0,66.0,-100.00,SE,145,3.0,12.0,85,-99.99,,,-99.99,,2013-07-02 04:11:00,
2013-07-02 00:32:00,71.0,66.0,-100.00,SSE,150,4.0,6.0,85,-99.99,,,-99.99,,2013-07-02 04:32:00,
2013-07-02 00:42:00,71.0,66.0,-100.00,SSE,150,4.0,6.0,85,-99.99,,,-99.99,,2013-07-02 04:42:00,
2013-07-02 00:53:00,71.0,66.0,-100.00,WNW,295,2.0,8.0,84,-99.99,,,-99.99,,2013-07-02 04:53:00,
2013-07-02 01:02:00,71.0,66.0,-100.00,SE,140,5.0,13.0,84,-99.99,,,-99.99,,2013-07-02 05:02:00,
2013-07-02 01:11:00,71.0,66.0,-100.00,SE,140,5.0,13.0,84,-99.99,,,-99.99,,2013-07-02 05:11:00,
2013-07-02 01:32:00,71.0,65.0,-100.00,SE,145,6.0,10.0,84,-99.99,,,-99.99,,2013-07-02 05:32:00,
2013-07-02 01:53:00,70.0,65.0,-100.00,SE,145,5.0,8.0,85,-99.99,,,-99.99,,2013-07-02 05:53:00,
2013-07-02 02:02:00,70.0,65.0,-100.00,SE,130,4.0,6.0,85,-99.99,,,-99.99,,2013-07-02 06:02:00,
2013-07-02 02:12:00,70.0,65.0,-100.00,SE,130,4.0,6.0,85,-99.99,,,-99.99,,2013-07-02 06:12:00,
2013-07-02 02:23:00,70.0,66.0,-100.00,ENE,65,1.0,3.0,86,-99.99,,,-99.99,,2013-07-02 06:23:00,
2013-07-02 02:34:00,70.0,66.0,-100.00,ESE,120,3.0,5.0,86,-99.99,,,-99.99,,2013-07-02 06:34:00,
2013-07-02 02:43:00,70.0,66.0,-100.00,ESE,120,3.0,5.0,86,-99.99,,,-99.99,,2013-07-02 06:43:00,
2013-07-02 02:53:00,71.0,66.0,-100.00,SE,130,3.0,5.0,84,-99.99,,,-99.99,,2013-07-02 06:53:00,
2013-07-02 03:01:00,71.0,66.0,-100.00,SSE,150,1.0,5.0,85,-99.99,,,-99.99,,2013-07-02 07:01:00,
2013-07-02 03:12:00,71.0,66.0,-100.00,SSE,150,1.0,5.0,85,-99.99,,,-99.99,,2013-07-02 07:12:00,
2013-07-02 03:44:00,70.0,66.0,-100.00,East,100,3.0,8.0,88,-99.99,,,-99.99,,2013-07-02 07:44:00,
2013-07-02 03:53:00,70.0,66.0,-100.00,ESE,110,4.0,5.0,88,-99.99,,,-99.99,,2013-07-02 07:53:00,
2013-07-02 04:02:00,70.0,66.0,-100.00,East,100,0.0,8.0,89,-99.99,,,-99.99,,2013-07-02 08:02:00,
2013-07-02 04:12:00,70.0,66.0,-100.00,East,100,0.0,8.0,89,-99.99,,,-99.99,,2013-07-02 08:12:00,
2013-07-02 04:33:00,69.0,66.0,-100.00,ESE,115,4.0,6.0,90,-99.99,,,-99.99,,2013-07-02 08:33:00,
2013-07-02 04:44:00,69.0,66.0,-100.00,ESE,115,4.0,6.0,90,-99.99,,,-99.99,,2013-07-02 08:44:00,
2013-07-02 05:02:00,69.0,67.0,-100.00,SE,130,4.0,7.0,93,-99.99,,,-99.99,,2013-07-02 09:02:00,
2013-07-02 05:11:00,69.0,67.0,-100.00,SE,130,4.0,7.0,93,-99.99,,,-99.99,,2013-07-02 09:11:00,
2013-07-02 05:23:00,69.0,67.0,-100.00,SE,130,4.0,7.0,93,-99.99,,,-99.99,,2013-07-02 09:23:00,
2013-07-02 05:33:00,69.0,67.0,-100.00,SE,125,5.0,9.0,92,-99.99,,,-99.99,,2013-07-02 09:33:00,
2013-07-02 05:43:00,69.0,67.0,-100.00,SE,135,5.0,9.0,93,-99.99,,,-99.99,,2013-07-02 09:43:00,
2013-07-02 05:52:00,69.0,67.0,-100.00,SE,145,6.0,10.0,92,-99.99,,,-99.99,,2013-07-02 09:52:00,
2013-07-02 06:01:00,69.0,67.0,-100.00,ESE,120,9.0,12.0,93,-99.99,,,-99.99,,2013-07-02 10:01:00,
2013-07-02 06:11:00,69.0,67.0,-100.00,ESE,120,9.0,12.0,93,-99.99,,,-99.99,,2013-07-02 10:11:00,
2013-07-02 06:33:00,69.0,67.0,-100.00,SE,140,7.0,10.0,92,-99.99,,,-99.99,,2013-07-02 10:33:00,
2013-07-02 06:44:00,69.0,67.0,-100.00,SE,140,7.0,10.0,92,-99.99,,,-99.99,,2013-07-02 10:44:00,
2013-07-02 06:52:00,69.0,66.0,-100.00,SE,135,5.0,11.0,93,-99.99,,,-99.99,,2013-07-02 10:52:00,
2013-07-02 07:01:00,69.0,66.0,-100.00,East,100,4.0,8.0,92,-99.99,,,-99.99,,2013-07-02 11:01:00,
2013-07-02 07:11:00,69.0,66.0,-100.00,East,100,4.0,8.0,92,-99.99,,,-99.99,,2013-07-02 11:11:00,
2013-07-02 07:42:00,69.0,66.0,-100.00,East,90,4.0,6.0,89,-99.99,,,-99.99,,2013-07-02 11:42:00,
2013-07-02 08:01:00,69.0,66.0,-100.00,ESE,120,4.0,10.0,88,-99.99,,,-99.99,,2013-07-02 12:01:00,
2013-07-02 08:11:00,69.0,66.0,-100.00,ESE,120,4.0,10.0,88,-99.99,,,-99.99,,2013-07-02 12:11:00,
2013-07-02 08:43:00,69.0,65.0,-100.00,SE,140,3.0,8.0,87,-99.99,,,-99.99,,2013-07-02 12:43:00,
2013-07-02 08:52:00,69.0,66.0,-100.00,SE,145,4.0,7.0,87,-99.99,,,-99.99,,2013-07-02 12:52:00,
2013-07-02 09:11:00,70.0,65.0,-100.00,ESE,120,6.0,8.0,87,-99.99,,,-99.99,,2013-07-02 13:11:00,
2013-07-02 09:43:00,71.0,66.0,-100.00,SSE,150,4.0,7.0,86,-99.99,,,-99.99,,2013-07-02 13:43:00,
2013-07-02 10:02:00,72.0,66.0,-100.00,SE,135,6.0,10.0,83,-99.99,,,-99.99,,2013-07-02 14:02:00,
2013-07-02 10:11:00,72.0,66.0,-100.00,SE,135,6.0,10.0,83,-99.99,,,-99.99,,2013-07-02 14:11:00,
2013-07-02 10:33:00,72.0,67.0,-100.00,SE,145,5.0,6.0,84,-99.99,,,-99.99,,2013-07-02 14:33:00,
2013-07-02 10:43:00,72.0,67.0,-100.00,SE,145,5.0,6.0,84,-99.99,,,-99.99,,2013-07-02 14:43:00,
2013-07-02 11:02:00,72.0,67.0,-100.00,SSE,160,5.0,9.0,85,-99.99,,,-99.99,,2013-07-02 15:02:00,
2013-07-02 11:12:00,72.0,67.0,-100.00,SSE,160,5.0,9.0,85,-99.99,,,-99.99,,2013-07-02 15:12:00,
2013-07-02 11:33:00,72.0,67.0,-100.00,SE,145,6.0,8.0,83,-99.99,,,-99.99,,2013-07-02 15:33:00,
2013-07-02 11:44:00,72.0,67.0,-100.00,SE,145,6.0,8.0,83,-99.99,,,-99.99,,2013-07-02 15:44:00,
2013-07-02 12:01:00,71.0,67.0,-100.00,SE,140,8.0,11.0,87,-99.99,,,-99.99,,2013-07-02 16:01:00,
2013-07-02 12:12:00,71.0,67.0,-100.00,SE,140,8.0,11.0,87,-99.99,,,-99.99,,2013-07-02 16:12:00,
2013-07-02 12:33:00,70.0,69.0,-100.00,South,175,3.0,8.0,95,-99.99,,,-99.99,,2013-07-02 16:33:00,
2013-07-02 12:43:00,70.0,69.0,-100.00,South,175,3.0,8.0,95,-99.99,,,-99.99,,2013-07-02 16:43:00,
2013-07-02 13:12:00,69.0,68.0,-100.00,SSW,205,4.0,12.0,97,-99.99,,,-99.99,,2013-07-02 17:12:00,
2013-07-02 13:43:00,68.0,65.0,-100.00,ESE,115,0.0,4.0,91,-99.99,,,-99.99,,2013-07-02 17:43:00,
2013-07-02 14:12:00,68.0,65.0,-100.00,NW,305,0.0,2.0,91,-99.99,,,-99.99,,2013-07-02 18:12:00,
2013-07-02 14:43:00,68.0,66.0,-100.00,SE,140,1.0,3.0,92,-99.99,,,-99.99,,2013-07-02 18:43:00,
2013-07-02 15:01:00,69.0,65.0,-100.00,SW,215,1.0,3.0,85,-99.99,,,-99.99,,2013-07-02 19:01:00,
2013-07-02 15:12:00,69.0,67.0,-100.00,South,180,2.0,6.0,91,-99.99,,,-99.99,,2013-07-02 19:12:00,
2013-07-02 15:34:00,69.0,67.0,-100.00,ESE,110,5.0,6.0,93,-99.99,,,-99.99,,2013-07-02 19:34:00,
2013-07-02 15:43:00,69.0,67.0,-100.00,ESE,110,5.0,6.0,93,-99.99,,,-99.99,,2013-07-02 19:43:00,
2013-07-02 16:02:00,69.0,67.0,-100.00,SSE,165,4.0,9.0,95,-99.99,,,-99.99,,2013-07-02 20:02:00,
2013-07-02 16:11:00,69.0,67.0,-100.00,SSE,165,4.0,9.0,95,-99.99,,,-99.99,,2013-07-02 20:11:00,
2013-07-02 16:33:00,68.0,67.0,-100.00,SE,135,9.0,13.0,95,-99.99,,,-99.99,,2013-07-02 20:33:00,
2013-07-02 16:43:00,68.0,67.0,-100.00,SE,135,9.0,13.0,95,-99.99,,,-99.99,,2013-07-02 20:43:00,
2013-07-02 17:03:00,68.0,66.0,-100.00,SE,140,6.0,10.0,94,-99.99,,,-99.99,,2013-07-02 21:03:00,
2013-07-02 17:11:00,68.0,66.0,-100.00,SE,140,6.0,10.0,94,-99.99,,,-99.99,,2013-07-02 21:11:00,
2013-07-02 17:33:00,69.0,66.0,-100.00,SSE,150,8.0,11.0,90,-99.99,,,-99.99,,2013-07-02 21:33:00,
2013-07-02 17:44:00,69.0,66.0,-100.00,SSE,150,8.0,11.0,90,-99.99,,,-99.99,,2013-07-02 21:44:00,
2013-07-02 18:11:00,69.0,65.0,-100.00,ESE,110,6.0,9.0,88,-99.99,,,-99.99,,2013-07-02 22:11:00,
2013-07-02 18:43:00,69.0,66.0,-100.00,SE,145,4.0,8.0,89,-99.99,,,-99.99,,2013-07-02 22:43:00,
2013-07-02 18:53:00,69.0,66.0,-100.00,SE,135,8.0,11.0,90,-99.99,,,-99.99,,2013-07-02 22:53:00,
2013-07-02 19:02:00,69.0,66.0,-100.00,SE,135,8.0,14.0,91,-99.99,,,-99.99,,2013-07-02 23:02:00,
2013-07-02 19:12:00,69.0,66.0,-100.00,SE,135,8.0,14.0,91,-99.99,,,-99.99,,2013-07-02 23:12:00,
2013-07-02 19:33:00,69.0,67.0,-100.00,SE,145,7.0,11.0,93,-99.99,,,-99.99,,2013-07-02 23:33:00,
2013-07-02 19:44:00,69.0,67.0,-100.00,SE,145,7.0,11.0,93,-99.99,,,-99.99,,2013-07-02 23:44:00,
2013-07-02 19:52:00,68.0,67.0,-100.00,SE,145,9.0,14.0,95,-99.99,,,-99.99,,2013-07-02 23:52:00,
2013-07-02 20:01:00,68.0,67.0,-100.00,SE,135,6.0,15.0,95,-99.99,,,-99.99,,2013-07-03 00:01:00,
2013-07-02 20:11:00,68.0,67.0,-100.00,SE,135,6.0,15.0,95,-99.99,,,-99.99,,2013-07-03 00:11:00,
2013-07-02 20:33:00,67.0,66.0,-100.00,ESE,120,8.0,15.0,97,-99.99,,,-99.99,,2013-07-03 00:33:00,
2013-07-02 20:44:00,67.0,66.0,-100.00,ESE,120,8.0,15.0,97,-99.99,,,-99.99,,2013-07-03 00:44:00,
2013-07-02 20:52:00,67.0,66.0,-100.00,SSE,160,10.0,17.0,96,-99.99,,,-99.99,,2013-07-03 00:52:00,
2013-07-02 21:11:00,67.0,66.0,-100.00,SE,140,8.0,16.0,96,-99.99,,,-99.99,,2013-07-03 01:11:00,
2013-07-02 21:22:00,67.0,66.0,-100.00,SE,140,8.0,16.0,96,-99.99,,,-99.99,,2013-07-03 01:22:00,
2013-07-02 21:33:00,67.0,66.0,-100.00,SE,140,7.0,11.0,97,-99.99,,,-99.99,,2013-07-03 01:33:00,
2013-07-02 21:42:00,67.0,66.0,-100.00,South,170,7.0,15.0,96,-99.99,,,-99.99,,2013-07-03 01:42:00,
2013-07-02 22:06:00,67.0,66.0,-100.00,SE,140,9.0,11.0,96,-99.99,,,-99.99,,2013-07-03 02:06:00,
2013-07-02 22:15:00,67.0,66.0,-100.00,SE,140,9.0,11.0,96,-99.99,,,-99.99,,2013-07-03 02:15:00,
2013-07-02 22:40:00,67.0,66.0,-100.00,SE,135,7.0,12.0,96,-99.99,,,-99.99,,2013-07-03 02:40:00,
2013-07-02 22:44:00,67.0,66.0,-100.00,SE,135,7.0,12.0,96,-99.99,,,-99.99,,2013-07-03 02:44:00,
2013-07-02 23:00:00,67.0,66.0,-100.00,SE,130,8.0,13.0,96,-99.99,,,-99.99,,2013-07-03 03:00:00,
2013-07-02 23:07:00,67.0,66.0,-100.00,SE,130,8.0,13.0,96,-99.99,,,-99.99,,2013-07-03 03:07:00,